Location: Baix
(44.7118°N, 4.7648°E)
Time: 07:40:14
(UTC+00:00)

Vanguard 1 - Pass Details

Date: 26 November 2020
Orbit: 648 x 3834 km, 34.3° (Epoch: 21 January)

Event Time Altitude Azimuth Distance (km) Brightness Sun altitude
Rises 05:15:11 0° 227° (SW) 3,573 - -16.9°
Exits shadow 05:15:40 - 226° (SW) 3,417 12.5 -16.8°
Reaches altitude 10° 05:17:31 10° 218° (SW) 2,876 12.2 -16.5°
Maximum altitude 05:23:51 35° 154° (SSE) 2,218 12.2 -15.4°
Drops below altitude 10° 05:34:28 10° 95° (E) 4,864 15.0 -13.6°
Sets 05:39:49 0° 89° (E) 6,430 15.8 -12.7°
